Regional Weather Roundup
Issued by NWS

Home | Current Version | Previous Version | Graphics & Text | Print | Product List | Glossary Off
Versions: 1 2 3 4 5 6 7 8 9 10 11 12 13 14 15 16 17 18 19 20 21 22 23 24 25 26 27 28 29 30 31 32 33 34 35 36 37 38 39 40 41 42 43 44 45 46 47 48 49 50

000
ASUS43 KMKX 281310
RWRWI

WISCONSIN REGIONAL WEATHER ROUNDUP
NATIONAL WEATHER SERVICE MILWAUKEE/SULLIVAN WI
700 AM CST WED JAN 28 2015

NOTE: "FAIR" INDICATES FEW OR NO CLOUDS BELOW 12,000 FEET WITH NO
SIGNIFICANT WEATHER AND/OR OBSTRUCTIONS TO VISIBILITY.

WIZ001-002-006>008-014>016-023>028-281400-
NORTHWEST WISCONSIN

CITY           SKY/WX    TMP DP  RH WIND       PRES   REMARKS
SUPERIOR ARPT  CLOUDY    25  22  85 SE3       30.04F
ASHLAND        CLOUDY    23  20  88 CALM      30.07F
HAYWARD        CLOUDY    23  19  85 S8        30.05S FOG     WCI  14
SIREN          CLOUDY    25  22  87 SE7       30.03F WCI  17
CUMBERLAND     CLOUDY    23  21  93 SE10      30.03F FOG     WCI  12
RICE LAKE      CLOUDY    24  22  89 SE13      30.07F WCI  13
CHETEK         CLOUDY    24  21  89 SE9G17    30.07F WCI  14
LADYSMITH      CLOUDY    25  23  92 SE7       30.10S FOG     WCI  17
EAU CLAIRE     CLOUDY    25  20  81 SE13      30.09F WCI  14
MENOMONIE      CLOUDY    26  23  88 SE12      30.08S FOG     WCI  15
NEW RICHMOND   CLOUDY    26  23  88 SE6       30.04F WCI  19
OSCEOLA        CLOUDY    27  25  91 SE12      30.06S WCI  17
$$

WIZ003>005-009-010-017-018-281400-
NORTH CENTRAL WISCONSIN

CITY           SKY/WX    TMP DP  RH WIND       PRES   REMARKS
MANITOWISH WTR CLOUDY    22  22  99 S10       30.05F FOG     WCI  11
ARBOR VITAE    CLOUDY    24  22  93 SE8       30.07F FOG     WCI  15
WOODRUFF       CLOUDY    24  22  93 SE8       30.07F FOG     WCI  15
RHINELANDER    CLOUDY    22  20  92 S6        30.10S FOG     WCI  14
EAGLE RIVER    CLOUDY    22  20  91 S6        30.09S FOG     WCI  15
LAND O LAKES   CLOUDY    23  22  96 S6        30.08F FOG     WCI  16
PHILLIPS       CLOUDY    22  21  96 S12       30.08R FOG     WCI  11
TOMAHAWK       CLOUDY    23  21  93 CALM      30.11F FOG
MEDFORD        CLOUDY    21  21 100 S10       30.10S FOG     WCI  10
MERRILL        CLOUDY    24  21  90 S3        30.12F
$$

WIZ029-030-035-036-043>047-281400-
CENTRAL WISCONSIN

CITY           SKY/WX    TMP DP  RH WIND       PRES   REMARKS
WAUSAU         CLOUDY    24  20  84 S10       30.13S WCI  14
MOSINEE        CLOUDY    25  23  93 S10       30.15S WCI  15
MARSHFIELD     CLOUDY    25  22  88 S15       30.12F FOG     WCI  13
STEVENS POINT  CLOUDY    23  19  87 S8        30.16S WCI  13
WAUPACA        CLOUDY    26  20  77 SE5       30.21S WCI  21
WAUTOMA        CLOUDY    25  20  81 S8        30.20F WCI  16
WISC RAPIDS    CLOUDY    25  21  85 SE7       30.16F WCI  17
CAMP DOUGLAS   CLOUDY    27  27 100 SE10      30.14F WCI  17
$$

WIZ011>013-019>022-031-037>040-048>050-281400-
NORTHEAST WISCONSIN

CITY           SKY/WX    TMP DP  RH WIND       PRES   REMARKS
ANTIGO         CLOUDY    20  18  91 S12       30.13F WCI   8
SHAWANO        CLOUDY    25  19  75 S5        30.21F WCI  20
OCONTO         PTCLDY    11  10  94 MISG      30.23S
STURGEON BAY   PTCLDY    19  12  73 S6        30.25S WCI  11
GREEN BAY      PTCLDY    17  14  88 S5        30.24R WCI  10
MANITOWOC      PTCLDY    16  13  88 SW3       30.25S
APPLETON       MOCLDY    23  18  80 S8        30.22S WCI  14
CLINTONVILLE   CLOUDY    25  19  80 S7        30.20S WCI  17
OSHKOSH        CLOUDY    22  16  78 S7        30.22S WCI  13
$$

WIZ032>034-041-042-053>061-281400-
SOUTHWEST WISCONSIN

CITY           SKY/WX    TMP DP  RH WIND       PRES   REMARKS
LA CROSSE      CLOUDY    27  22  81 S10       30.13F WCI  17
SPARTA         CLOUDY    26  23  88 SE7       30.14F FOG     WCI  18
VIROQUA        CLOUDY    25  25 100 SE12G21   30.10F WCI  14
BOSCOBEL       CLOUDY    28  22  78 VRB3      30.18S HAZE
PRAIRIE DU CHI CLOUDY    27  23  85 SE8       30.16S WCI  18
PLATTEVILLE    CLOUDY    26  24  93 SE13      30.16F WCI  15
$$

WIZ056-057-062-063-064-067-068-281400-
SOUTH CENTRAL WISCONSIN

CITY           SKY/WX    TMP DP  RH WIND       PRES   REMARKS
REEDSBURG      CLOUDY    24  22  89 SE8       30.16F WCI  16
BARABOO/DELLS  CLOUDY    23  20  87 S9        30.17F WCI  13
LONE ROCK      CLOUDY    26  22  84 SE8       30.19F FOG     WCI  18
MINERAL POINT  CLOUDY    28  27  93 SE10      30.15S FOG     WCI  19
MADISON        CLOUDY    21  17  84 S8        30.22R WCI  11
MIDDLETON      CLOUDY    26  20  80 SE7       30.21R WCI  18
WATERTOWN      PTCLDY    19  17  93 SE5       30.23S WCI  12
MONROE         CLOUDY    25  23  93 SE10      30.19S WCI  15
JANESVILLE     NOT AVBL
$$

WIZ051-052-058>065-066-070>072-281400-
SOUTHEAST WISCONSIN

CITY           SKY/WX    TMP DP  RH WIND       PRES   REMARKS
MILWAUKEE      MOCLDY    23  17  78 S6        30.26S WCI  16
WAUKESHA       PTCLDY    19  16  86 S5        30.25  WCI  13
MILWAUKEE/TIMM CLEAR     21  18  86 E3        30.26R
RACINE         PTCLDY    20  16  84 SW3       30.28S
BURLINGTON     PTCLDY    12  10  92 CALM      30.26S
KENOSHA        MOCLDY    22  18  85 S5        30.26F WCI  16
FOND DU LAC    CLOUDY    22  16  78 S8        30.23S WCI  12
SHEBOYGAN      PTCLDY    19  15  84 CALM      30.24S
WEST BEND      PTCLDY    18  14  86 CALM      30.23F
JUNEAU         MOCLDY    19  16  88 SE8       30.23S WCI   9
$$

LSZ147-162-281400-
LAKE SUPERIOR

STATION/POSITION TIME  TEMP    WIND        PRES    WAVE
                       AIR SEA DIR/SP/G            HT/PER
                 (UTC) (F)     (DEG/KT/KT) (MB)    (FT/S)
DEVILS ISLAND    1300   28     180/  6/  8 1019.1F
PORT WING        1200   26     170/  3/  6 1018.6S
SAXON HARBOR     1200   27        CALM     1018.6F
$$

LMZ867-665-643>646-281400-
LAKE MICHIGAN

STATION/POSITION TIME  TEMP    WIND        PRES    WAVE
                       AIR SEA DIR/SP/G            HT/PER
                 (UTC) (F)     (DEG/KT/KT) (MB)    (FT/S)
NORTHPORT PIER   1205   18      CALM  /  4 1024.4R
SISTER BAY       1243   20        CALM       N/A
KEWAUNEE LAKESHO 1200   13     240/  1/  3 1023.4R
SHEBOYGAN LAKESH 1300   29     160/ 10/ 11 1025.4R
PORT WASHINGTON  1200   25        CALM     1025.4R
MILWAUKEE LAKESH 1200   27     210/  6/  7   N/A
KENOSHA   LAKESH 1300   26     200/  4/  4 1024.7F
$$

TC  - TEMPERATURE IN CELSIUS
VSB - VISIBILITY IN STATUTE MILES
WCI - WIND CHILL INDEX
HX  - HEAT INDEX



USA.gov is the U.S. government's official web portal to all federal, state and local government web resources and services.